Tracking 20093 objects as of 14-Dec-2019
HD Live streaming from Space Station
objects crossing your sky now

FENGYUN 1C DEB

Track FENGYUN 1C DEB now!
10-day predictions


NORAD ID: 30492
Int'l Code: 1999-025AHE
Perigee: 747.2 km
Apogee: 994.9 km
Inclination: 102.3 °
Period: 102.2 minutes
Semi major axis: 7242 km
RCS: 0.0164 m2 (small)
Launch date: May 10, 1999
Source: People's Republic of China (PRC)
Launch site: Taiyaun Space Center, China (TSC)

Note: This is SATELLITE DEBRIS
aabbcc
Your satellite tracking list
Your tracking list is empty




NASA's NSSDC Master Catalog

Two Line Element Set (TLE):
1 30492U 99025AHE 19347.86720260 +.00000529 +00000-0 +30593-3 0  9997
2 30492 102.3436 198.3144 0171008 171.2453 201.8306 14.08683628658026
Source of the keplerian elements: AFSPC